Weather History for Juneau, AK

Change the Weather History Date:

Thursday, August 7, 2014

  Actual Average Record
Temperature  
Mean Temperature 58 °F 57 °F  
Max Temperature 64 °F 64 °F 80 °F (1965)
Min Temperature 51 °F 50 °F 40 °F (2006)
Degree Days  
Heating Degree Days 7 8  
Month to date heating degree days 32 54  
Since 1 June heating degree days 612 620  
Since 1 July heating degree days 262 305  
Cooling Degree Days 0 0  
Month to date cooling degree days 0 0  
Year to date cooling degree days 0 2  
Since 1 June cooling degree days 0 2  
Growing Degree Days 8 (Base 50)    
Moisture  
Dew Point 51 °F    
Average Humidity 84    
Maximum Humidity 100    
Minimum Humidity 67    
Precipitation  
Precipitation T in 0.16 in 1.45 in (2002)
Month to date precipitation 0.36 1.09  
Year to date precipitation 35.93 28.53  
Sea Level Pressure  
Sea Level Pressure 30.00 in    
Wind  
Wind Speed 5 mph (East)    
Max Wind Speed 13 mph    
Max Gust Speed 19 mph    
Visibility 10 miles    
Events Rain    
T = Trace of Precipitation, MM = Missing Value Source: NWS Daily Summary

Daily Weather History Graph

Daily Weather History Graph

Search for Another Location

Airport:

Trip Planner

Search our weather history database for the weather conditions in past years. The results will help you decide how hot, cold, wet, or windy it might be!

Date:

Astronomy

Aug. 07, 2014 Rise Set
Actual Time 5:02 AM AKDT 9:03 PM AKDT
Civil Twilight 4:11 AM AKDT 9:54 PM AKDT
Nautical Twilight 2:52 AM AKDT 11:11 PM AKDT
Astronomical Twilight 1:36 AM AKDT 12:31 AM AKDT
Moon 6:37 PM AKDT (8/7) 1:28 AM AKDT (8/7)
Length of Visible Light 17h 42m
Length of Day
16h 00m
Waxing Gibbous, 88% of the Moon is Illuminated
Aug 7
Waxing Gibbous
Aug 10
Full
Aug 17
Last Quarter
Aug 25
New
Sep 2
First Quarter

Hourly Weather History & Observations

Time (AKDT) Temp. Dew Point Humidity Pressure Visibility Wind Dir Wind Speed Gust Speed Precip Events Conditions
12:53 AM 54.0 °F 53.1 °F 97% 30.10 in 8.0 mi ENE 8.1 mph - 0.03 in Rain Light Rain
1:53 AM 54.0 °F 52.0 °F 93% 30.09 in 10.0 mi East 6.9 mph - 0.00 in Rain Light Rain
2:53 AM 54.0 °F 52.0 °F 93% 30.08 in 10.0 mi ENE 6.9 mph - 0.00 in   Overcast
3:13 AM 54.0 °F 52.0 °F 93% 30.07 in 10.0 mi ENE 6.9 mph - N/A   Overcast
3:53 AM 54.0 °F 52.0 °F 93% 30.07 in 10.0 mi East 3.5 mph - N/A   Overcast
4:53 AM 53.1 °F 52.0 °F 96% 30.06 in 10.0 mi East 4.6 mph - N/A   Overcast
5:53 AM 52.0 °F 51.1 °F 97% 30.04 in 10.0 mi East 3.5 mph - N/A   Mostly Cloudy
6:53 AM 53.1 °F 52.0 °F 96% 30.04 in 10.0 mi East 5.8 mph - N/A   Mostly Cloudy
7:53 AM 54.0 °F 52.0 °F 93% 30.03 in 10.0 mi East 8.1 mph - N/A   Mostly Cloudy
8:53 AM 55.9 °F 52.0 °F 87% 30.02 in 10.0 mi East 8.1 mph - N/A   Mostly Cloudy
9:53 AM 59.0 °F 53.1 °F 81% 30.01 in 10.0 mi East 8.1 mph - N/A   Mostly Cloudy
10:53 AM 61.0 °F 53.1 °F 75% 30.00 in 10.0 mi Calm Calm - N/A   Mostly Cloudy
11:53 AM 60.1 °F 52.0 °F 75% 29.99 in 10.0 mi Variable 3.5 mph - N/A   Mostly Cloudy
12:53 PM 60.1 °F 52.0 °F 75% 29.98 in 10.0 mi West 3.5 mph - N/A   Mostly Cloudy
1:53 PM 60.1 °F 51.1 °F 72% 29.96 in 10.0 mi West 6.9 mph - N/A   Overcast
2:53 PM 62.1 °F 51.1 °F 67% 29.96 in 10.0 mi WSW 3.5 mph - N/A   Mostly Cloudy
3:53 PM 63.0 °F 50.0 °F 63% 29.96 in 10.0 mi Calm Calm - N/A   Overcast
4:53 PM 64.0 °F 48.9 °F 58% 29.95 in 10.0 mi Variable 5.8 mph - N/A   Mostly Cloudy
5:53 PM 64.0 °F 46.9 °F 54% 29.94 in 10.0 mi ESE 5.8 mph - N/A   Mostly Cloudy
6:53 PM 64.0 °F 51.1 °F 63% 29.94 in 10.0 mi South 5.8 mph - N/A   Mostly Cloudy
7:53 PM 61.0 °F 50.0 °F 67% 29.94 in 10.0 mi East 6.9 mph - N/A   Mostly Cloudy
8:53 PM 57.0 °F 50.0 °F 77% 29.95 in 10.0 mi ENE 9.2 mph - N/A   Mostly Cloudy
9:53 PM 55.0 °F 48.9 °F 80% 29.96 in 10.0 mi East 9.2 mph - N/A   Mostly Cloudy
10:53 PM 52.0 °F 48.0 °F 86% 29.97 in 10.0 mi East 9.2 mph - N/A   Mostly Cloudy
11:53 PM 51.1 °F 48.0 °F 89% 29.98 in 10.0 mi East 8.1 mph - N/A   Mostly Cloudy